Regional Weather Roundup
Issued by NWS Sterling, VA

Home | Current Version | Previous Version | Graphics & Text | Print | Product List | Glossary On
Versions: 1 2 3 4 5 6 7 8 9 10 11 12 13 14 15 16 17 18 19 20 21 22 23 24 25 26 27
000
ASUS41 KLWX 180910
RWRLWX

REGIONAL WEATHER ROUNDUP
NATIONAL WEATHER SERVICE BALTIMORE MD/WASHINGTON DC
500 AM EDT FRI APR 18 2014

Note: "FAIR" indicates few or no clouds below 12,000 feet
with no significant weather and/or obstructions to visibility.
 TC=TEMPERATURE CELSIUS

 * =Non NWS site. Station does not report precipitation (e.g. rain,
    snow, etc.), thunder, or fog.

DCZ001-MDZ009-015-VAZ040>042-051-053>054-181000-
WASHINGTON METRO

CITY           SKY/WX    TMP DP  RH WIND       PRES   REMARKS
WASHINGTON NAT CLOUDY    40  30  67 VRB5      30.51F
DULLES         PTCLDY    32  30  93 CALM      30.49F
ANDREWS AFB    CLOUDY    38  30  74 E6        30.49F
FT BELVOIR     MOCLDY    33  31  95 CALM      30.51S
QUANTICO       MOCLDY    41  32  70 E8        30.51S
COLLEGE PARK*  CLOUDY    37  32  81 CALM      30.50S
LEESBURG*      PTCLDY    36  34  93 CALM      30.50S
MANASSAS*      PTCLDY    32  32 100 CALM      30.50S
GAITHERSBURG*  CLOUDY    34  28  80 CALM      30.51S

$$

MDZ006>007-011-014-181000-
BALTIMORE METRO

CITY           SKY/WX    TMP DP  RH WIND       PRES   REMARKS
BWI AIRPORT    MOCLDY    39  30  70 NE9       30.49F
MD SCIENCE CTR   N/A     40  30  67 MISG      30.51S
MARTIN STATE   MOCLDY    39  32  75 NE5       30.52S
ANNAPOLIS      CLOUDY    41  32  70 NE7       30.49F
FORT MEADE*    CLOUDY    37  32  81 E7        30.52S

$$

MDZ012-015-019>023-181000-
MARYLAND EASTERN SHORE

CITY           SKY/WX    TMP DP  RH WIND       PRES   REMARKS
OCEAN CITY     CLEAR     41  34  76 NE10      30.43F
SALISBURY      CLEAR     39  32  76 N8        30.45F
BAY BRIDGE AP* CLOUDY    39  32  75 NE3       30.50S
CAMBRIDGE*     CLOUDY    41  32  70 NE5       30.48S
EASTON*        MOCLDY    41  34  75 E6        30.52F

$$

MDZ017>025-181000-
SOUTHERN MARYLAND

CITY           SKY/WX    TMP DP  RH WIND       PRES   REMARKS
PATUXENT RIVER CLOUDY    39  30  70 NE7       30.48F
ST INIGOES     CLOUDY    40  31  70 N3        30.47F
LEONARDTOWN*   CLOUDY    37  32  81 CALM      30.50S

$$

MDZ003>005-181000-
NORTH CENTRAL MARYLAND

CITY           SKY/WX    TMP DP  RH WIND       PRES   REMARKS
FREDERICK*     PTCLDY    32  32 100 CALM      30.53S
HAGERSTOWN APT PTCLDY    36  30  79 CALM      30.47F
WESTMINSTER*   PTCLDY    34  28  80 CALM      30.48F

$$

MDZ501>502-181000-
WESTERN MARYLAND

CITY           SKY/WX    TMP DP  RH WIND       PRES   REMARKS
OAKLAND*       MOCLDY    32  28  86 SE14      30.32S WCI  22
CUMBERLAND*    MOCLDY    37  32  81 CALM      30.47F

$$

VAZ025>031-181000-
SHENANDOAH VALLEY

CITY           SKY/WX    TMP DP  RH WIND       PRES   REMARKS
WINCHESTER*    MOCLDY    34  32  93 CALM      30.46S
STAUNTON*      MOCLDY    35  30  83 CALM      30.45S

$$

WVZ021-048>050-054>055-181000-
EASTERN WEST VIRGINIA PANHANDLE

CITY           SKY/WX    TMP DP  RH WIND       PRES   REMARKS
MARTINSBURG    MOCLDY    36  28  73 CALM      30.48F
PETERSBURG*    MOCLDY    36  34  92 CALM      30.43R

$$

VAZ036>039-050-181000-
CENTRAL FOOTHILLS

CITY           SKY/WX    TMP DP  RH WIND       PRES   REMARKS
CHARLOTTESVILL CLOUDY    39  34  82 CALM      30.48S
CULPEPER*      MOCLDY    34  34 100 CALM      30.50S

$$

VAZ055>057-181000-
NORTH AND CENTRAL PIEDMONT

CITY           SKY/WX    TMP DP  RH WIND       PRES   REMARKS
FREDERICKSBRG* CLOUDY    36  36 100 CALM      30.50R
STAFFORD*      PTCLDY    32  32 100 CALM      30.53S

$$

NCZ024-NYZ072-PAZ021-071-VAZ022-071-181000-
OTHER REGIONAL OBSERVATIONS

CITY           SKY/WX    TMP DP  RH WIND       PRES   REMARKS
NEW YORK CITY  CLOUDY    37  27  67 E9G17     30.52F
PHILADELPHIA   CLOUDY    39  27  62 E10       30.52S
PITTSBURGH     MOCLDY    43  27  53 SE5       30.30F
ROANOKE        PTCLDY    38  32  79 SE5       30.46F
RICHMOND       MOCLDY    37  32  82 N6        30.47F
RALEIGH        MOCLDY    39  35  86 NE5       30.42F

$$

ANZ530>537-181000-
MARINE OBSERVATIONS

STATION/POSITION TIME  TEMP    WIND        PRES
                       AIR SEA DIR/SP/G
                 (UTC) (F)     (DEG/KT/KT) (MB)
THOMAS PT LIGHT  0900   39 52   60/  8/ 11 1033.2F
BALT KEY BRIDGE  0900   39      80/  6/  8 1033.0S
COVE POINT       0900   39      80/  6/  9 1032.0F
LEWISETTA        0900   41 52   30/  6/ 10 1031.6S
SOLOMONS ISLAND  0900      53                N/A
PINEY POINT      0900           30/  7/  9   N/A

$$




USA.gov is the U.S. government's official web portal to all federal, state and local government web resources and services.